TimeCDT,TemperatureF,Dew PointF,Humidity,Sea Level PressureIn,VisibilityMPH,Wind Direction,Wind SpeedMPH,Gust SpeedMPH,PrecipitationIn,Events,Conditions,WindDirDegrees,DateUTC
12:52 AM,52.0,48.9,89,29.35,10.0,SW,11.5,-,N/A,,Overcast,230,2012-10-18 05:52:00
1:52 AM,52.0,46.9,83,29.35,10.0,WSW,13.8,-,0.00,,Overcast,250,2012-10-18 06:52:00
2:52 AM,48.9,45.0,86,29.34,10.0,WSW,13.8,18.4,N/A,,Scattered Clouds,240,2012-10-18 07:52:00
3:52 AM,46.9,43.0,86,29.34,10.0,SW,11.5,-,N/A,,Mostly Cloudy,230,2012-10-18 08:52:00
4:52 AM,46.9,43.0,86,29.35,10.0,SW,13.8,-,N/A,,Overcast,230,2012-10-18 09:52:00
5:52 AM,46.9,42.1,83,29.36,10.0,SW,17.3,-,N/A,,Overcast,230,2012-10-18 10:52:00
6:52 AM,44.1,39.0,82,29.37,10.0,SW,13.8,-,N/A,,Mostly Cloudy,230,2012-10-18 11:52:00
7:52 AM,45.0,39.0,80,29.38,10.0,SW,10.4,-,N/A,,Mostly Cloudy,230,2012-10-18 12:52:00
8:52 AM,48.0,39.0,71,29.39,10.0,SW,15.0,-,N/A,,Mostly Cloudy,220,2012-10-18 13:52:00
9:52 AM,48.9,37.9,66,29.39,10.0,SW,17.3,25.3,N/A,,Scattered Clouds,230,2012-10-18 14:52:00
10:52 AM,48.9,39.0,69,29.40,10.0,SW,20.7,25.3,N/A,,Overcast,230,2012-10-18 15:52:00
11:52 AM,50.0,37.9,63,29.41,10.0,SW,13.8,23.0,N/A,,Overcast,230,2012-10-18 16:52:00
12:52 PM,51.1,37.0,59,29.41,10.0,SSW,18.4,26.5,N/A,,Overcast,210,2012-10-18 17:52:00
1:52 PM,51.1,36.0,56,29.42,10.0,SW,17.3,27.6,0.00,Rain,Light Rain,220,2012-10-18 18:52:00
2:52 PM,46.0,41.0,83,29.45,10.0,SW,15.0,23.0,0.00,Rain,Light Rain,230,2012-10-18 19:52:00
3:52 PM,46.0,39.9,79,29.47,10.0,SSW,15.0,25.3,0.00,Rain,Light Rain,210,2012-10-18 20:52:00
4:52 PM,45.0,41.0,86,29.49,7.0,SSW,16.1,25.3,0.02,Rain,Light Rain,210,2012-10-18 21:52:00
5:52 PM,44.1,41.0,89,29.50,9.0,SSW,12.7,-,0.02,Rain,Light Rain,200,2012-10-18 22:52:00
6:52 PM,44.1,41.0,89,29.50,10.0,South,11.5,-,0.01,Rain,Light Rain,180,2012-10-18 23:52:00
7:52 PM,45.0,41.0,86,29.50,10.0,South,16.1,-,0.00,Rain,Light Rain,180,2012-10-19 00:52:00
8:19 PM,44.6,41.0,87,29.49,10.0,South,15.0,24.2,0.00,Rain,Light Rain,190,2012-10-19 01:19:00
8:27 PM,44.6,41.0,87,29.49,10.0,South,12.7,21.9,0.00,Rain,Light Rain,190,2012-10-19 01:27:00
8:52 PM,44.1,42.1,93,29.50,10.0,South,10.4,-,0.01,Rain,Light Rain,180,2012-10-19 01:52:00
9:50 PM,44.6,42.8,93,29.48,9.0,SSW,12.7,-,0.02,Rain,Light Rain,200,2012-10-19 02:50:00
9:52 PM,44.1,41.0,89,29.49,9.0,SSW,12.7,-,0.02,Rain,Light Rain,200,2012-10-19 02:52:00
10:05 PM,44.6,41.0,87,29.48,8.0,SSW,12.7,-,0.01,Rain,Light Rain,200,2012-10-19 03:05:00
10:52 PM,44.1,41.0,89,29.47,10.0,South,12.7,-,0.01,Rain,Light Rain,170,2012-10-19 03:52:00
11:52 PM,44.1,41.0,89,29.46,10.0,South,13.8,-,0.00,Rain,Light Rain,180,2012-10-19 04:52:00